Theta_e
307 307 308 306 305 305 305 304 303 305 304 303 304 304 306 304 302 303 303 303 305 307 308 310 309 309 309 309 309 308 308 308 308 308 308 307 306 306 306 306 305 305
306 305 304 305 304 303 304 305 305 304 303 303 304 305 305 304 302 302 301 301 303 305 306 307 307 306 306 306 304 305 306 305 305 305 305 304 304 303 303 303 303 303
306 306 308 308 308 307 305 306 307 307 306 305 306 307 306 303 302 299 297 297 300 300 301 301 303 304 305 305 306 305 304 304 303 302 300 301 302 303 304 304 303 303
306 307 307 306 307 306 306 306 305 304 304 304 304 302 301 297 296 295 295 294 296 295 295 296 295 296 296 296 298 300 303 303 302 301 301 298 298 300 302 301 301 301
307 307 307 308 306 304 303 303 302 302 303 300 296 293 295 294 294 292 291 290 291 290 291 291 292 292 292 292 292 294 296 296 297 298 298 298 297 298 299 299 298 298
307 307 307 307 304 302 302 301 298 299 298 296 294 292 293 292 290 290 289 289 288 289 289 289 290 290 291 290 289 289 289 290 291 295 295 294 294 294 297 296 297 297
305 304 302 302 301 300 299 296 294 294 294 293 290 290 288 289 289 288 288 288 289 289 289 289 289 289 289 288 288 288 289 289 289 290 291 291 293 295 294 295 295 294
302 300 300 299 298 296 294 292 290 290 289 289 290 286 288 289 288 287 286 287 288 289 289 290 292 295 292 292 292 292 292 294 291 291 291 292 292 292 291 292 292 293
296 295 294 293 292 290 290 289 288 287 287 290 288 287 286 287 288 288 288 288 289 289 291 290 291 290 289 290 290 291 291 291 291 291 291 291 290 290 290 290 290 290
293 291 291 291 290 289 289 287 287 287 287 288 287 287 288 286 288 288 287 288 287 286 286 286 286 285 285 287 289 288 288 290 289 289 289 289 289 288 287 287 287 286
289 289 290 289 288 288 288 287 287 286 287 288 287 287 287 287 286 284 284 285 287 287 287 286 286 284 287 286 285 285 287 287 286 285 286 286 286 285 286 285 286 285
288 288 289 288 288 287 287 287 286 287 287 286 287 288 286 286 286 286 285 284 283 284 284 285 284 284 285 285 285 284 284 284 284 284 284 284 284 284 284 285 286 286
288 288 288 287 287 286 286 286 286 286 287 286 285 287 287 286 285 286 283 284 283 283 284 285 284 284 284 284 284 283 284 285 285 284 284 283 283 283 283 283 284 284
287 286 286 286 286 286 286 286 286 286 285 285 286 287 286 286 286 285 283 283 283 284 283 282 283 283 283 283 283 283 283 283 283 283 283 283 283 283 283 283 283 283
286 286 286 286 286 286 286 285 285 285 285 285 285 285 285 284 284 284 284 284 283 284 283 283 284 283 284 284 284 284 284 284 284 283 283 283 283 283 283 283 283 282
286 285 285 285 285 285 285 285 285 285 285 284 283 283 283 283 283 283 283 283 283 282 282 283 282 283 286 290 291 285 284 283 283 283 283 282 282 282 283 283 283 283
285 285 285 285 284 284 284 284 284 284 283 283 283 283 283 283 283 282 281 282 282 282 282 282 282 284 289 292 292 292 285 283 283 283 282 281 281 281 282 282 282 283
285 284 284 284 284 284 283 283 283 282 282 282 282 282 282 281 281 281 281 281 282 281 282 281 281 288 290 291 291 291 290 284 282 282 282 282 281 281 281 281 281 281
284 284 284 283 283 283 282 282 282 282 282 281 281 280 280 281 279 281 281 281 281 281 281 280 281 288 290 290 290 290 291 287 282 281 282 281 281 281 281 280 280 280
283 283 283 282 282 282 282 282 282 282 281 280 280 279 280 280 279 280 280 281 281 280 280 280 281 287 289 290 290 290 291 289 281 281 280 280 280 280 280 279 280 280
283 283 282 281 281 281 281 281 281 281 280 280 280 280 280 280 280 280 279 278 278 278 280 281 282 288 288 289 290 289 289 287 280 279 279 278 278 279 278 278 279 280
282 282 281 281 281 281 281 280 280 280 280 279 279 278 277 278 277 278 279 278 278 278 280 280 281 286 288 288 288 288 287 281 279 279 277 277 277 277 278 278 278 278
282 281 281 280 281 280 280 280 280 279 278 277 279 278 278 279 278 277 276 278 278 278 278 279 279 283 286 287 287 287 284 278 276 275 275 275 277 277 277 277 277 278
281 281 280 280 280 280 279 279 278 277 278 276 279 279 278 277 277 278 278 279 279 278 277 278 277 281 285 285 286 287 283 277 275 274 273 274 274 277 276 276 277 280
280 280 280 279 279 278 278 278 278 278 276 276 276 276 277 276 277 279 279 279 278 278 279 278 276 278 283 284 285 285 282 275 274 273 273 274 275 275 275 274 277 278
278 278 277 278 277 276 276 277 276 275 275 275 274 276 276 276 277 278 278 277 278 278 277 276 276 275 277 284 284 284 284 278 273 274 275 276 276 276 275 276 276 275
Wind_Speed
7 5 7 5 5 5 6 5 5 5 4 3 3 1 0 0 2 3 3 3 1 1 0 0 0 1 1 1 1 2 1 1 2 3 4 3 2 2 2 3 3 2
6 6 5 5 5 4 4 5 6 6 5 3 2 3 2 3 3 2 2 2 2 2 1 2 2 2 2 2 3 3 3 3 3 0 1 0 0 1 1 1 2 3
6 6 7 7 7 6 6 5 5 5 4 3 3 4 4 3 4 4 4 3 4 4 4 3 4 4 4 3 1 1 1 1 2 3 2 3 3 2 3 2 2 1
6 7 7 6 6 6 5 6 5 5 5 4 5 4 5 3 4 4 4 4 5 5 4 5 4 5 5 5 4 4 3 2 2 2 2 3 3 3 3 3 3 4
6 6 6 6 5 5 5 5 5 5 5 5 4 3 4 4 4 4 4 4 5 4 4 4 4 5 4 6 6 6 6 5 5 4 5 4 4 5 4 5 4 4
5 5 6 5 5 5 5 5 5 6 6 5 4 3 4 4 4 5 4 5 4 5 4 4 4 4 5 5 5 5 4 5 4 5 5 4 4 4 5 5 5 5
5 5 5 5 5 5 7 5 4 5 5 5 4 4 4 5 5 4 4 5 5 6 5 4 4 5 4 4 5 4 4 4 4 4 5 4 4 5 5 5 5 4
5 4 6 6 7 5 7 5 5 5 6 5 6 3 5 5 5 4 4 5 5 4 4 4 4 4 4 4 4 4 4 4 4 5 5 4 4 4 4 3 3 3
6 6 6 6 7 5 6 6 5 5 4 7 6 5 4 5 5 5 5 5 5 5 5 4 4 4 3 4 4 4 4 4 4 4 3 2 1 2 3 3 3 3
7 6 7 7 7 5 7 5 5 5 5 6 5 5 6 4 4 5 5 5 5 4 3 3 3 3 3 3 4 4 3 1 1 0 0 0 1 2 3 3 4 4
6 6 7 7 7 6 6 6 5 5 5 6 6 5 4 5 5 5 6 4 4 3 2 2 2 1 2 2 1 1 0 0 0 1 1 2 2 3 4 3 4 4
6 6 7 7 7 6 6 6 6 5 6 5 5 6 5 5 6 5 5 3 3 2 2 2 2 2 1 1 1 1 1 1 0 0 1 2 2 3 3 3 3 4
6 6 7 7 7 7 6 6 6 5 6 6 5 6 6 6 5 5 3 4 2 3 3 3 3 2 2 1 1 1 1 1 1 1 1 2 2 3 3 3 3 4
6 5 6 6 6 6 6 6 5 5 5 5 6 7 6 5 5 5 3 4 3 4 3 3 4 4 3 2 2 1 1 1 0 2 3 3 2 2 2 3 3 4
6 5 5 6 6 7 7 6 6 5 6 6 6 6 5 5 4 4 4 4 4 4 4 4 4 3 2 2 2 2 1 3 2 3 3 4 4 4 2 2 3 3
7 6 5 5 6 7 6 6 6 6 7 6 6 5 5 5 5 4 4 4 4 4 4 4 3 2 3 5 4 3 3 2 2 2 2 3 4 6 7 6 5 5
8 7 5 6 5 6 6 7 7 6 6 6 6 5 6 5 5 4 3 3 4 4 4 4 3 3 6 6 6 5 3 3 4 4 3 3 3 4 5 7 7 7
8 7 7 6 6 7 7 6 7 7 6 5 6 6 4 4 4 3 3 3 4 4 5 4 4 6 7 7 7 8 6 4 4 4 4 4 4 4 4 4 5 6
8 8 8 7 6 7 6 7 7 6 6 6 5 4 4 4 4 4 4 3 4 5 5 3 3 8 8 9 10 10 10 7 5 4 5 4 4 4 4 5 5 5
8 8 8 7 6 6 6 7 7 6 5 4 4 4 4 4 4 5 4 5 5 4 4 4 4 9 10 10 10 11 11 7 4 4 3 4 4 4 4 4 5 5
8 8 9 7 7 6 6 6 7 6 5 4 4 4 5 5 4 5 4 4 4 3 4 5 6 11 11 11 11 11 12 6 4 3 3 3 3 3 4 4 4 5
8 9 8 8 7 6 7 7 5 5 6 4 4 4 3 3 3 4 5 5 4 4 5 6 6 11 11 11 12 12 10 5 4 4 3 3 3 3 3 4 4 4
7 9 9 8 7 8 7 7 7 6 4 3 6 4 5 5 4 4 3 4 5 5 6 5 5 8 11 12 12 12 7 5 3 3 3 2 3 3 2 3 3 4
7 8 9 8 8 8 8 6 5 4 4 3 6 6 6 4 4 5 5 5 5 5 4 5 4 8 12 12 11 11 7 4 3 3 2 2 1 1 1 2 3 8
6 6 7 8 8 7 7 8 6 6 4 4 5 5 5 3 4 6 6 5 5 5 7 7 5 7 11 10 9 10 6 2 3 2 1 2 4 2 1 2 5 6
5 6 6 7 9 7 6 6 5 6 5 6 4 5 6 5 5 6 6 5 5 6 6 6 6 5 5 8 9 9 9 3 2 3 6 8 7 8 9 6 4 5
Wind_Direction
154 160 158 158 160 158 156 147 154 138 148 141 129 185 159 306 356 339 331 331 303 241 303 152 310 181 150 63 57 62 69 64 49 32 36 36 8 18 358 346 348 338
148 140 130 125 113 115 125 135 150 143 153 143 136 115 80 81 33 61 77 73 60 54 43 57 67 56 54 43 37 23 1 7 329 267 91 307 218 91 350 320 318 328
129 127 132 136 136 127 122 113 106 94 102 114 109 104 111 98 96 62 64 80 74 53 38 33 39 29 32 35 54 103 75 11 310 347 7 334 324 313 288 280 278 266
122 127 126 125 124 121 108 95 89 97 110 107 105 111 108 104 98 82 67 58 75 57 48 50 48 34 26 21 26 38 31 14 356 8 28 16 25 0 348 1 358 346
128 119 112 106 93 90 95 112 121 127 120 115 99 110 110 106 91 88 85 72 78 74 64 64 59 54 50 46 44 52 29 34 14 32 55 36 18 25 12 20 7 351
105 104 103 108 115 124 122 126 137 130 123 109 120 106 97 93 90 91 89 83 70 74 64 56 57 50 55 62 63 63 52 44 20 42 54 50 15 25 25 25 20 6
120 116 121 121 114 112 115 118 118 115 114 128 110 89 105 91 91 92 90 92 82 69 68 59 59 50 46 61 62 61 50 57 43 51 56 37 33 15 16 19 9 356
127 122 123 118 119 120 116 119 119 119 130 105 96 106 103 102 101 100 92 89 84 83 71 65 59 65 52 62 62 53 40 40 40 43 43 32 27 14 359 3 344 327
123 125 126 127 121 121 117 119 118 114 117 110 113 102 87 110 114 101 95 95 96 100 107 107 102 100 93 89 79 74 66 49 52 62 57 39 5 311 296 302 311 296
128 132 126 127 122 127 120 121 114 110 113 110 116 113 106 96 102 109 99 100 108 105 102 102 88 81 73 82 108 119 118 124 159 141 216 245 263 277 285 296 287 298
130 132 127 125 126 126 122 118 114 115 111 118 113 105 112 104 83 80 80 78 100 115 106 94 99 73 67 40 26 40 82 113 330 317 311 295 286 284 289 295 296 287
133 129 130 130 130 124 123 122 121 114 113 106 117 115 98 88 93 75 97 100 123 147 116 88 67 80 83 71 18 22 55 65 80 37 273 278 285 290 291 295 297 296
135 135 133 133 128 126 122 117 113 118 113 115 112 108 103 98 90 89 72 106 116 106 91 90 90 92 89 74 68 72 83 41 353 312 295 302 296 297 298 299 291 291
129 130 129 124 121 118 116 116 116 110 111 110 103 95 99 103 105 103 86 83 73 77 66 76 76 66 54 52 67 111 115 84 187 352 352 341 329 308 294 295 293 292
123 114 111 116 119 119 118 118 115 112 105 96 92 94 90 95 99 106 102 84 67 70 68 66 76 66 60 65 66 43 69 47 37 28 14 355 344 338 327 299 297 295
118 114 121 124 123 124 125 122 116 109 102 97 96 100 100 96 89 79 86 101 95 79 76 76 69 51 24 37 42 60 50 41 43 48 30 14 356 343 338 343 344 342
123 129 133 132 133 126 124 118 113 109 105 103 100 95 97 94 97 103 110 115 111 107 93 82 69 39 34 40 37 36 50 38 25 6 18 19 13 355 338 334 336 342
135 137 135 138 134 128 122 117 111 109 107 104 102 100 100 107 111 123 110 99 95 87 76 69 54 31 43 43 41 37 39 46 37 19 3 2 356 347 332 327 323 327
140 141 139 137 134 127 123 115 113 108 108 110 116 131 127 123 127 106 91 84 82 76 69 59 52 23 31 30 29 27 28 40 27 23 9 346 341 334 329 325 320 316
141 140 135 134 131 126 121 118 113 114 116 119 124 123 116 106 90 85 79 69 66 75 73 58 45 20 24 20 19 19 17 29 21 8 356 340 333 328 319 312 304 304
140 137 133 133 131 127 122 117 118 120 119 127 120 116 111 105 91 81 73 74 63 66 71 54 35 21 23 22 19 23 24 28 15 5 356 345 327 313 303 294 296 293
143 138 135 136 134 130 126 125 125 133 129 133 111 100 96 102 71 73 69 63 61 61 64 48 24 20 20 24 26 28 26 16 14 3 357 347 332 316 312 304 295 295
149 142 141 141 141 135 134 135 134 128 119 124 106 105 99 80 79 75 70 68 58 53 58 51 35 14 25 29 26 26 29 15 10 7 351 344 319 297 297 298 302 318
151 147 143 145 145 143 139 134 124 109 109 118 119 118 95 87 89 84 65 63 63 58 63 72 47 18 28 28 24 29 47 30 360 350 310 286 260 260 286 302 312 337
144 143 144 144 141 141 140 135 132 125 120 102 99 98 102 95 75 83 78 62 64 74 68 70 48 20 14 24 25 29 36 25 346 301 288 330 348 1 61 23 350 347
134 136 141 142 138 133 126 124 130 115 110 106 91 95 99 87 81 83 86 75 71 71 64 57 45 16 355 19 28 22 21 31 317 349 7 1 2 356 347 354 1 349